Location: C�mpuri de-Sus
(45.9500°N, 22.5500°E)
Time: 04:38:33
(UTC+00:00)

Cosmos 1844 Rocket - Pass Details

Date: 24 October 2021
Orbit: 826 x 843 km, 71.0° (Epoch: 04 December)

Event Time Altitude Azimuth Distance (km) Brightness Sun altitude
Rises 17:22:07 0° 333° (NNW) 3,375 6.3 -20.4°
Reaches altitude 10° 17:24:34 10° 333° (NNW) 2,437 5.5 -20.8°
Maximum altitude 17:30:10 87° 244° (WSW) 834 2.6 -21.8°
Enters shadow 17:33:37 24° 157° (SSE) 1,642 3.9 -22.4°
